GLOBAL-31

导读

GLOBAL-31是一颗由美国于2025年2月18日发射入轨的卫星,发射正值美国航天发射活跃度攀升的2025年,当年美国共完成181次轨道发射尝试,成功次数占据全球首位。作为全球星座部署中的组成单元,该卫星承载着拓展全球航天基础设施网络的任务,目前已在轨运行超一年,持续服务于相关天地一体化网络的构建,助力提升全球覆盖能力与服务稳定性。

Basic Information
目录编号:
63027
目录名称:
GLOBAL-31
国际标识:
2025-033B
轨道中心:
EARTH
卫星名称:
GLOBAL-31
卫星全名:
GLOBAL-31
卫星状态:
在轨 (已飞行564 天)
发射日期:
2025-02-18 UTC
国别 :
美国 (US)
星等 :
--
Orbit Information
数据来源 国际轨道数据
星历时间: 2026-09-05T02:38:00+0800
15小时前
查看轨道信息
半长轴: 6826.297km
偏心率: 0.0014971
轨道倾角: 59.002°
近地点辐角 84.673°
升交点赤经 354.428°
平近点角 275.606°
近地点: 437.94km
远地点: 458.38km
周期: 93.549分钟
每日圈数: 15.393063
Detailed Information
使用方式:
暂无
2D Orbit Map
3D Orbit Map
Orbit Altitude Analysis Chart
Orbit Inclination Analysis Chart
Orbit Comprehensive Analysis Chart
View Comprehensive Chart
Conjunction Data List
Event ID Objects TCA Miss Dist (km) Collision Risk Probability Collision Risk Index (CRI) Action
CDM_260907-065405-912506-302721
2026-09-07T
06:54:03+0000
2.153 km
极远距离
1.606039E-6 低风险 0.39